Index of /20260428/WXO-DD/model_gdps/15km/00/032
Name Last modified Size Description
Parent Directory -
20260428T00Z_MSC_GDPS_AirTemp_AGL-120m_LatLon0.15_PT032H.grib2 2026-04-28 03:57 905K
20260428T00Z_MSC_GDPS_AirTemp_AGL-2m_LatLon0.15_PT032H.grib2 2026-04-28 03:57 1.0M
20260428T00Z_MSC_GDPS_AirTemp_AGL-40m_LatLon0.15_PT032H.grib2 2026-04-28 03:57 806K
20260428T00Z_MSC_GDPS_AirTemp_AGL-80m_LatLon0.15_PT032H.grib2 2026-04-28 03:57 913K
20260428T00Z_MSC_GDPS_Albedo_Sfc_LatLon0.15_PT032H.grib2 2026-04-28 03:57 245K
20260428T00Z_MSC_GDPS_ConvectivePrecip-Accum_Sfc_LatLon0.15_PT032H.grib2 2026-04-28 03:57 2.7M
20260428T00Z_MSC_GDPS_DewPointDepression_AGL-2m_LatLon0.15_PT032H.grib2 2026-04-28 03:57 758K
20260428T00Z_MSC_GDPS_DewPoint_AGL-2m_LatLon0.15_PT032H.grib2 2026-04-28 03:57 608K
20260428T00Z_MSC_GDPS_DownwardLongwaveRadiationFlux-Accum_Sfc_LatLon0.15_PT032H.grib2 2026-04-28 03:57 766K
20260428T00Z_MSC_GDPS_DownwardShortwaveRadiationFlux-Accum_Sfc_LatLon0.15_PT032H.grib2 2026-04-28 03:57 926K
20260428T00Z_MSC_GDPS_FreezingRain-Accum1h_Sfc_LatLon0.15_PT032H.grib2 2026-04-28 03:57 40K
20260428T00Z_MSC_GDPS_FreezingRain-Accum_Sfc_LatLon0.15_PT032H.grib2 2026-04-28 03:57 203K
20260428T00Z_MSC_GDPS_IcePellets-Accum1h_Sfc_LatLon0.15_PT032H.grib2 2026-04-28 03:57 9.5K
20260428T00Z_MSC_GDPS_IcePellets-Accum_Sfc_LatLon0.15_PT032H.grib2 2026-04-28 03:57 47K
20260428T00Z_MSC_GDPS_LatentHeatNetFlux_Sfc_LatLon0.15_PT032H.grib2 2026-04-28 03:57 550K
20260428T00Z_MSC_GDPS_NetLongwaveRadiationFlux-Accum_Sfc_LatLon0.15_PT032H.grib2 2026-04-28 03:57 1.0M
20260428T00Z_MSC_GDPS_NetShortwaveRadiationFlux-Accum_Sfc_LatLon0.15_PT032H.grib2 2026-04-28 03:57 1.0M
20260428T00Z_MSC_GDPS_O3MixingRatio_LatLon0.15_PT032H.grib2 2026-04-28 04:52 2.3M
20260428T00Z_MSC_GDPS_O3_EAtm_LatLon0.15_PT032H.grib2 2026-04-28 04:52 2.5M
20260428T00Z_MSC_GDPS_PlanetaryBoundaryLayerHeight_Sfc_LatLon0.15_PT032H.grib2 2026-04-28 03:57 2.5M
20260428T00Z_MSC_GDPS_Precip-Accum1h_Sfc_LatLon0.15_PT032H.grib2 2026-04-28 03:57 3.3M
20260428T00Z_MSC_GDPS_Precip-Accum_Sfc_LatLon0.15_PT032H.grib2 2026-04-28 03:57 4.6M
20260428T00Z_MSC_GDPS_PrecipRate_Sfc_LatLon0.15_PT032H.grib2 2026-04-28 03:57 3.2M
20260428T00Z_MSC_GDPS_Pressure_MSL_LatLon0.15_PT032H.grib2 2026-04-28 03:57 720K
20260428T00Z_MSC_GDPS_Pressure_Sfc_LatLon0.15_PT032H.grib2 2026-04-28 03:57 1.1M
20260428T00Z_MSC_GDPS_RadiativeTemp_Sfc_LatLon0.15_PT032H.grib2 2026-04-28 03:57 494K
20260428T00Z_MSC_GDPS_Rain-Accum1h_Sfc_LatLon0.15_PT032H.grib2 2026-04-28 03:57 1.7M
20260428T00Z_MSC_GDPS_Rain-Accum_Sfc_LatLon0.15_PT032H.grib2 2026-04-28 03:57 3.4M
20260428T00Z_MSC_GDPS_RelativeHumidity_AGL-2m_LatLon0.15_PT032H.grib2 2026-04-28 03:57 1.1M
20260428T00Z_MSC_GDPS_Runoff-Accum_Sfc_LatLon0.15_PT032H.grib2 2026-04-28 03:57 104K
20260428T00Z_MSC_GDPS_SensibleHeatNetFlux_Sfc_LatLon0.15_PT032H.grib2 2026-04-28 03:57 661K
20260428T00Z_MSC_GDPS_Snow-Accum1h_Sfc_LatLon0.15_PT032H.grib2 2026-04-28 03:57 1.1M
20260428T00Z_MSC_GDPS_Snow-Accum_Sfc_LatLon0.15_PT032H.grib2 2026-04-28 03:57 1.9M
20260428T00Z_MSC_GDPS_SnowDepth_Sfc_LatLon0.15_PT032H.grib2 2026-04-28 03:57 1.7M
20260428T00Z_MSC_GDPS_SoilTemp_DBS-0to10cm_LatLon0.15_PT032H.grib2 2026-04-28 03:57 499K
20260428T00Z_MSC_GDPS_SoilTemp_Sfc_LatLon0.15_PT032H.grib2 2026-04-28 03:57 586K
20260428T00Z_MSC_GDPS_SoilVolumetricWaterContent_DBS-0to10cm_LatLon0.15_PT032H.grib2 2026-04-28 03:57 579K
20260428T00Z_MSC_GDPS_SoilVolumetricWaterContent_DBS-0to1cm_LatLon0.15_PT032H.grib2 2026-04-28 03:57 647K
20260428T00Z_MSC_GDPS_SpecificHumidity_AGL-120m_LatLon0.15_PT032H.grib2 2026-04-28 03:57 1.1M
20260428T00Z_MSC_GDPS_SpecificHumidity_AGL-2m_LatLon0.15_PT032H.grib2 2026-04-28 03:57 1.2M
20260428T00Z_MSC_GDPS_SpecificHumidity_AGL-40m_LatLon0.15_PT032H.grib2 2026-04-28 03:57 1.1M
20260428T00Z_MSC_GDPS_SpecificHumidity_AGL-80m_LatLon0.15_PT032H.grib2 2026-04-28 03:57 1.1M
20260428T00Z_MSC_GDPS_SpecificHumidity_Sfc_LatLon0.15_PT032H.grib2 2026-04-28 03:57 669K
20260428T00Z_MSC_GDPS_TotalCloudCover_Sfc_LatLon0.15_PT032H.grib2 2026-04-28 03:57 824K
20260428T00Z_MSC_GDPS_UVIndex-ClearSky_Sfc_LatLon0.15_PT032H.grib2 2026-04-28 04:52 1.0M
20260428T00Z_MSC_GDPS_UVIndex_Sfc_LatLon0.15_PT032H.grib2 2026-04-28 04:52 1.4M
20260428T00Z_MSC_GDPS_UpwardLongwaveRadiationFlux_NTAtm_LatLon0.15_PT032H.grib2 2026-04-28 03:57 837K
20260428T00Z_MSC_GDPS_WindDir_AGL-10m_LatLon0.15_PT032H.grib2 2026-04-28 03:57 1.3M
20260428T00Z_MSC_GDPS_WindDir_AGL-120m_LatLon0.15_PT032H.grib2 2026-04-28 03:57 1.3M
20260428T00Z_MSC_GDPS_WindDir_AGL-40m_LatLon0.15_PT032H.grib2 2026-04-28 03:57 1.4M
20260428T00Z_MSC_GDPS_WindDir_AGL-80m_LatLon0.15_PT032H.grib2 2026-04-28 03:57 1.4M
20260428T00Z_MSC_GDPS_WindDir_IsbL-0700_LatLon0.15_PT032H.grib2 2026-04-28 03:57 1.6M
20260428T00Z_MSC_GDPS_WindGust-Max_AGL-10m_LatLon0.15_PT032H.grib2 2026-04-28 03:57 2.2M
20260428T00Z_MSC_GDPS_WindGust-Min_AGL-10m_LatLon0.15_PT032H.grib2 2026-04-28 03:57 2.1M
20260428T00Z_MSC_GDPS_WindGust_AGL-10m_LatLon0.15_PT032H.grib2 2026-04-28 03:57 2.1M
20260428T00Z_MSC_GDPS_WindSpeed_AGL-10m_LatLon0.15_PT032H.grib2 2026-04-28 03:57 1.1M
20260428T00Z_MSC_GDPS_WindSpeed_AGL-120m_LatLon0.15_PT032H.grib2 2026-04-28 03:57 1.2M
20260428T00Z_MSC_GDPS_WindSpeed_AGL-40m_LatLon0.15_PT032H.grib2 2026-04-28 03:57 1.2M
20260428T00Z_MSC_GDPS_WindSpeed_AGL-80m_LatLon0.15_PT032H.grib2 2026-04-28 03:57 1.2M
20260428T00Z_MSC_GDPS_WindSpeed_IsbL-0700_LatLon0.15_PT032H.grib2 2026-04-28 03:57 1.5M
20260428T00Z_MSC_GDPS_WindU_AGL-10m_LatLon0.15_PT032H.grib2 2026-04-28 03:57 1.3M
20260428T00Z_MSC_GDPS_WindU_AGL-120m_LatLon0.15_PT032H.grib2 2026-04-28 03:57 1.0M
20260428T00Z_MSC_GDPS_WindU_AGL-40m_LatLon0.15_PT032H.grib2 2026-04-28 03:57 964K
20260428T00Z_MSC_GDPS_WindU_AGL-80m_LatLon0.15_PT032H.grib2 2026-04-28 03:57 1.0M
20260428T00Z_MSC_GDPS_WindU_IsbL-0700_LatLon0.15_PT032H.grib2 2026-04-28 03:57 1.2M
20260428T00Z_MSC_GDPS_WindV_AGL-10m_LatLon0.15_PT032H.grib2 2026-04-28 03:57 1.3M
20260428T00Z_MSC_GDPS_WindV_AGL-120m_LatLon0.15_PT032H.grib2 2026-04-28 03:57 969K
20260428T00Z_MSC_GDPS_WindV_AGL-40m_LatLon0.15_PT032H.grib2 2026-04-28 03:57 965K
20260428T00Z_MSC_GDPS_WindV_AGL-80m_LatLon0.15_PT032H.grib2 2026-04-28 03:57 970K
20260428T00Z_MSC_GDPS_WindV_IsbL-0700_LatLon0.15_PT032H.grib2 2026-04-28 03:57 1.2M